Terug naar catalogus

STARLINK-30510

ActiefCommunicatieVLEO
NORAD 57981·PAYLOAD·🇺🇸 United States

Gelanceerd Sep 30, 2023 vanaf Cape Canaveral Space Force Station

Loading…

Volgende Passages (komende 24 uur)

TLE

VersSource: CelesTrak SupGP

Epoch: Sep 14, 2026, 22:05 UTC

1 57981C 23151T   26257.92062500 -.00063820  00000+0 -23102-2 0  2575
2 57981  43.0038   5.2405 0001881 268.0521 169.5698 15.27628762    19

Volg STARLINK-30510 in realtime met AllMySat

Download on the App Store